Location: Wildlife_Club
(35.6000°N, 81.4330°W)
Time: 00:44:41
(UTC-04:00)

A-11 Canister half - Pass Details

Date: 28 June 2019
Orbit: 1514 x 1685 km, 47.2° (Epoch: 22 July)

Event Time Altitude Azimuth Distance (km) Brightness Sun altitude
Rises 11:03:19 0° 253° (WSW) 4,926 11.4 56.2°
Reaches altitude 10° 11:06:36 10° 257° (WSW) 3,930 11.0 56.9°
Maximum altitude 11:16:32 59° 336° (NNW) 1,853 10.1 58.8°
Drops below altitude 10° 11:26:11 10° 55° (NE) 3,821 11.5 60.7°
Sets 11:29:20 0° 59° (ENE) 4,784 11.9 61.3°
